STARLINK-33670, 63413

Orbit data source: Space-Track

STARLINK-33670, 63413 is a payload satellite owned by SpaceX/Seattle (US) in LEO that was launched on Mon, 31 Mar 2025 UTC via an FALCON 9 launch vehicle from the Air Force Eastern Test Range (AFETR). Payload-class satellites include a variety of spacecraft equipped with specific instruments for various scientific and technological missions. These include communications satellites like Starlink; space stations such as the ISS; scientific satellites like the Hubble; Earth observation satellites from companies like Planet Labs, Umbra, and HawkEye 360; GPS; miniature CubeSats for education and research; and military/defense satellites.

Loading next visibility...
Identifier
63413, 2025-065Q
Orbit
LEO
Country
Flag of USUS
Related business
Manufacturer
SpaceX/Seattle
Mission
Operational Commercial Communications
Bus & Motor
STARLINK V2MO, Unknown motor
Mass
575 kg wet, ~530 kg dry
Launch date (UTC)
2025-03-31 (1 year ago)
Launch vehicle
FALCON 9
Launch site
Air Force Eastern Test Range (AFETR)
Object type
Payload
Rocket body
Debris
Shape & HBR
Box + 2 Pan, 17.7 m
Radar Cross Section
36.964 m², Large (>1 m²)

Expand to show TLE details & history
Last TLE update: 1 day ago

TLE from 1 day ago
0 STARLINK-33670
1 63413U 25065Q   26170.51189052  .00014048  00000-0  51916-3 0  9994
2 63413  42.9999 251.8893 0001458 269.1817  90.8868 15.27572826 68412
Epoch: 2026-06-19T12:17Z
TLE epoch observation values (Epoch: 2026-06-19T12:17:07.340Z)
Latitude
-0.00001°
Longitude
159.8689°
Altitude
482.862 km
Speed
7.626 km/s
True Right ascension
16h 47m 33s
True Declination
0° 00' 00"
Sunlit
Object was in full shadow at epoch
Visualization orbit readout
Latitude
Unknown
Longitude
Unknown
Altitude
Unknown
Speed
Unknown
Apparent Right ascension
Unknown
Apparent Declination
Unknown
Sunlit
N/A
Visualization observer readout
Local Sidereal Time
07:17:48
Azimuth
Unknown
Elevation
Unknown
Doppler factor
Unknown
Orbital elements
Apogee altitude
486.016 km
Perigee altitude
484.015 km
Semi-major axis
6,863.153 km
Eccentricity
0.00015
Inclination
42.9999°
RAAN
251.8893°
Arg. of periapsis
269.1817°
True anomaly
90.90351°
Mean anomaly
90.8868°
Eccentric anomaly
90.89515°
Mean motion
3.81731 °/min
Orbital period
94.31 mins
BSTAR
0.00051916
Loading maneuver chart data...
Computing Atmospheric mass density...
Loading historical data...
Loading historical data...
Loading historical data...
Loading historical data...
Loading historical data...
Loading historical data...
Loading historical data...

Documentation

Showing up to 5 results
|